Powrót do katalogu

CZ-4C DEB

AktywnySSO
NORAD 35249·DEBRIS·🇨🇳 China

Wystrzelony Nov 11, 2007 z Taiyuan Satellite Launch Center

Loading…

Następne Przeloty (najbliższe 24 godziny)

TLE

ŚwieżeSource: Space-Track

Epoka: Sep 14, 2026, 05:50 UTC

1 35249U 07055D   26257.24308373  .00001580  00000-0  32063-3 0  9993
2 35249  97.7733  64.1501 0196635 296.6245  61.4927 14.51053137983236

Śledź CZ-4C DEB w czasie rzeczywistym z AllMySat

Download on the App Store